Location: Splawn
(30.9202°N, 96.9858°W)
Time: 21:32:19
(UTC+00:00)

Courier 1B - Visible Passes

Search period start: 17 February 2020 00:00
Search period end: 27 February 2020 00:00
Orbit: 962 x 1209 km, 28.3° (Epoch: 17 February)

Date Brightness Start Highest point End Pass type
(mag) Time Alt. Az. Time Alt. Az. Time Alt. Az.
17 Feb 7.7 01:18:25 10° WSW 01:25:27 71° S 01:29:44 24° E visible
17 Feb 8.8 03:12:43 10° W 03:16:38 35° WSW 03:16:38 35° WSW visible
18 Feb 7.5 02:18:47 10° W 02:25:41 69° S 02:26:19 65° SSE visible
19 Feb 7.7 01:24:49 10° W 01:31:55 72° S 01:36:01 25° ESE visible
19 Feb 9.0 03:19:15 10° W 03:22:56 31° WSW 03:22:56 31° WSW visible
20 Feb 7.9 00:30:49 10° W 00:38:06 73° S 00:44:55 10° E visible
20 Feb 7.7 02:25:15 10° W 02:32:06 58° SSW 02:32:39 57° S visible
21 Feb 7.8 01:31:15 10° W 01:38:21 66° S 01:42:24 25° ESE visible
21 Feb 9.3 03:25:57 10° W 03:29:18 25° WSW 03:29:18 25° WSW visible
22 Feb 7.9 00:37:13 10° W 00:44:33 71° S 00:51:24 10° ESE visible
22 Feb 8.2 02:31:49 10° W 02:38:26 44° SSW 02:39:06 43° S visible
23 Feb 8.2 01:37:44 10° W 01:44:43 53° SSW 01:48:55 23° SE visible
23 Feb 9.6 03:33:03 10° WSW 03:35:50 19° WSW 03:35:50 19° WSW visible
24 Feb 8.2 00:43:39 10° W 00:50:57 61° SSW 00:57:46 10° ESE visible
24 Feb 8.8 02:38:36 10° W 02:44:38 30° SSW 02:45:43 29° S visible
25 Feb 8.7 01:44:20 10° W 01:50:58 38° SSW 01:55:38 17° SE visible
25 Feb 10.0 03:41:21 10° WSW 03:42:34 12° SW 03:42:34 12° SW visible
26 Feb 8.6 00:50:09 10° W 00:57:15 47° SSW 01:03:54 10° SE visible
26 Feb 9.5 02:46:01 10° WSW 02:50:44 19° SSW 02:52:33 17° S visible
